EW0822 Weather Reports


time (UTC)temp
C
wind
direction
speed
KPH
gust
KPH
rain 1hr
cm
rain 24hr
cm
rain mn
cm
humidity
%
barometer
mb
20260510234506 12 238 0.0 0.0 0.18 0.18 0.18 75 1005.0
20260510233002 12 209 0.0 0.0 0.10 0.10 0.10 77 1005.2
20260510231559 13 290 0.0 1.6 0.03 0.03 0.03 78 1005.4
20260510230055 13 270 0.0 0.0 0.00 0.00 0.00 77 1005.6
20260510224551 14 273 0.0 0.0 0.00 0.00 0.00 76 1005.8
20260510223054 14 252 0.0 0.0 0.00 0.00 0.00 75 1005.8
20260510221549 14 216 0.0 0.0 0.00 0.00 0.00 74 1005.8
20260510220045 15 219 0.0 0.0 0.00 0.00 0.00 74 1005.7
20260510214553 15 218 0.0 4.8 0.00 0.00 0.00 74 1005.7
20260510213046 15 250 0.0 1.6 0.00 0.00 0.00 73 1005.7
20260510211542 15 275 0.0 0.0 0.00 0.00 0.00 72 1005.9
20260510210042 15 5 0.0 1.6 0.00 0.00 0.00 72 1006.0
20260510204539 15 236 0.0 4.8 0.00 0.00 0.00 71 1006.1
20260510203040 16 244 0.0 14.5 0.00 0.00 0.00 69 1006.2
20260510201535 16 235 0.0 1.6 0.00 0.00 0.00 67 1006.2
20260510200034 16 259 0.0 4.8 0.00 0.00 0.00 63 1006.3
20260510194535 16 281 0.0 1.6 0.00 0.00 0.00 62 1006.4
20260510193033 17 246 0.0 0.0 0.00 0.00 0.00 61 1006.5
20260510191532 17 226 0.0 0.0 0.00 0.00 0.00 61 1006.5
20260510190035 17 215 0.0 0.0 0.00 0.00 0.00 60 1006.5
20260510184530 17 286 0.0 1.6 0.00 0.00 0.00 59 1006.6
20260510183036 18 259 0.0 0.0 0.00 0.00 0.00 58 1006.6
20260510181530 18 279 0.0 1.6 0.00 0.00 0.00 58 1006.7
20260510180026 18 224 0.0 0.0 0.00 0.00 0.00 57 1007.0
20260510174525 18 270 0.0 4.8 0.00 0.00 0.00 56 1007.0
20260510173025 19 241 0.0 1.6 0.00 0.00 0.00 56 1007.1
20260510171524 19 329 0.0 0.0 0.00 0.00 0.00 54 1007.2
20260510170023 20 229 0.0 4.8 0.00 0.00 0.00 53 1007.2
20260510164527 20 288 0.0 0.0 0.00 0.00 0.00 52 1007.2
20260510163022 20 220 0.0 0.0 0.00 0.00 0.00 51 1007.2
20260510161521 21 231 0.0 1.6 0.00 0.00 0.00 50 1007.2
20260510160019 21 351 0.0 0.0 0.00 0.00 0.00 49 1007.4
20260510154519 21 333 0.0 3.2 0.00 0.00 0.00 49 1007.6
20260510153015 21 5 0.0 11.3 0.00 0.00 0.00 49 1007.8
20260510151512 21 13 0.0 8.0 0.00 0.00 0.00 49 1008.0
20260510150011 21 323 0.0 17.7 0.00 0.00 0.00 49 1008.4
20260510144515 21 205 0.0 1.6 0.00 0.00 0.00 51 1008.7
20260510143008 21 238 0.0 1.6 0.00 0.00 0.00 50 1008.8
20260510141504 21 292 0.0 1.6 0.00 0.00 0.00 50 1009.1
20260510140002 21 205 0.0 8.0 0.00 0.00 0.00 51 1009.1
20260510134601 20 262 0.0 1.6 0.00 0.00 0.00 51 1009.3
20260510133057 20 223 0.0 8.0 0.00 0.00 0.00 51 1009.6
20260510131554 20 234 0.0 0.0 0.00 0.00 0.00 52 1009.7
20260510130051 20 5 0.0 8.0 0.00 0.00 0.00 51 1010.0
20260510124556 20 304 0.0 1.6 0.00 0.00 0.00 51 1010.2
20260510123047 20 207 0.0 9.7 0.00 0.00 0.00 51 1010.5
20260510121544 20 218 0.0 1.6 0.00 0.00 0.00 52 1010.6
20260510120043 20 266 0.0 3.2 0.00 0.00 0.00 52 1010.7
20260510114550 20 233 0.0 8.0 0.00 0.00 0.00 53 1010.8
20260510113041 20 355 0.0 3.2 0.00 0.00 0.00 52 1010.8
20260510111539 19 224 0.0 0.0 0.00 0.00 0.00 53 1011.0
20260510110035 20 301 0.0 6.4 0.00 0.00 0.00 53 1011.2
20260510104533 19 229 0.0 6.4 0.00 0.00 0.00 53 1011.4
20260510103029 19 233 0.0 3.2 0.00 0.00 0.00 55 1011.6
20260510101527 19 251 0.0 0.0 0.00 0.00 0.00 54 1011.6
20260510100026 18 222 0.0 0.0 0.00 0.00 0.00 54 1011.8
20260510094536 18 224 0.0 3.2 0.00 0.00 0.00 56 1011.8
20260510093020 18 330 0.0 8.0 0.00 0.00 0.00 57 1012.1
20260510091516 18 205 3.2 11.3 0.00 0.00 0.00 58 1012.2
20260510090012 17 200 0.0 0.0 0.00 0.00 0.00 65 1012.2
20260510084517 17 235 0.0 1.6 0.00 0.00 0.00 69 1012.4
20260510083005 16 205 0.0 0.0 0.00 0.00 0.00 70 1012.6
20260510081601 16 271 0.0 0.0 0.00 0.00 0.00 71 1012.8
20260510080059 15 279 0.0 0.0 0.00 0.00 0.00 74 1012.8
20260510074554 15 360 0.0 0.0 0.00 0.00 0.00 74 1013.0
20260510073054 15 5 0.0 0.0 0.00 0.00 0.00 75 1013.0
20260510071545 14 5 0.0 0.0 0.00 0.00 0.00 76 1012.9
20260510070042 13 5 0.0 0.0 0.00 0.00 0.00 77 1012.9
20260510064540 13 5 0.0 0.0 0.00 0.00 0.00 77 1012.8
20260510063038 12 5 0.0 0.0 0.00 0.00 0.00 78 1012.8
20260510061535 12 5 0.0 0.0 0.00 0.00 0.00 77 1012.9
20260510060039 11 5 0.0 0.0 0.00 0.00 0.00 75 1012.9
20260510054535 11 5 0.0 0.0 0.00 0.00 0.00 74 1012.9
20260510053026 10 5 0.0 0.0 0.00 0.00 0.00 73 1013.0
20260510051523 9 5 0.0 0.0 0.00 0.00 0.00 73 1013.0
20260510050019 8 5 0.0 0.0 0.00 0.00 0.00 73 1013.2
20260510044515 8 5 0.0 0.0 0.00 0.00 0.00 74 1013.3
20260510043014 8 5 0.0 0.0 0.00 0.00 0.00 74 1013.3
20260510041510 8 5 0.0 0.0 0.00 0.00 0.00 74 1013.3
20260510040007 8 5 0.0 0.0 0.00 0.00 0.00 74 1013.3
20260510034513 8 5 0.0 0.0 0.00 0.00 0.00 74 1013.3
20260510033006 8 5 0.0 0.0 0.00 0.00 0.00 75 1013.3
20260510031507 9 5 0.0 0.0 0.00 0.00 0.00 74 1013.4
20260510030006 9 5 0.0 0.0 0.00 0.00 0.00 74 1013.4
20260510024600 9 5 0.0 0.0 0.00 0.00 0.00 74 1013.5
20260510024501 9 5 0.0 0.0 0.00 0.00 0.00 74 1013.5
20260510023058 9 5 0.0 0.0 0.00 0.00 0.00 74 1013.5
20260510021601 9 5 0.0 0.0 0.00 0.00 0.00 75 1013.8
20260510020056 9 5 0.0 0.0 0.00 0.00 0.00 75 1013.9
20260510014556 9 5 0.0 0.0 0.00 0.00 0.00 75 1013.9
20260510013053 9 5 0.0 0.0 0.00 0.00 0.00 76 1014.0
20260510011551 10 5 0.0 0.0 0.00 0.00 0.00 76 1013.9
20260510010049 10 5 0.0 0.0 0.00 0.00 0.00 77 1013.8
20260510004550 10 5 0.0 0.0 0.00 0.00 0.00 77 1013.9
20260510003047 10 5 0.0 0.0 0.00 0.00 0.00 77 1014.0
20260510001544 10 5 0.0 0.0 0.00 0.00 0.00 78 1014.0
20260510000044 11 5 0.0 0.0 0.00 0.00 0.00 78 1013.9